Aberdeen / Amory, MS

10:42 AM CST on December 15, 2019 (GMT -0600)
Aberdeen / Amory

Weather History for KM40 - June, 2019

Change the Weather History Date:

Thursday, June 6, 2019

  Actual Average (WUND) Record (WUND)
Temperature  
Mean Temperature 74 °F -  
Max Temperature 78 °F - - (-1)
Min Temperature 69 °F - - (-1)
Cooling Degree Days 8    
Growing Degree Days 24 (Base 50)    
Moisture  
Dew Point 73 °F    
Average Humidity 100    
Maximum Humidity 100    
Minimum Humidity 100    
Precipitation  
Precipitation 0.00 in - - ()
Sea Level Pressure  
Sea Level Pressure 29.83 in    
Wind  
Wind Speed 3 mph ()    
Max Wind Speed 9 mph    
Max Gust Speed 17 mph    
Visibility 7.6 miles    
Events Rain    
Averages and records for this station are not official NWS values.
T = Trace of Precipitation, MM = Missing Value Source: Averaged Metar Reports

Daily Weather History Graph

Daily Weather History Graph

Search for Another Location

Airport or City:

Astronomy

Jun. 06, 2019 Rise Set
Actual Time 5:43 AM CDT 8:02 PM CDT
Civil Twilight 5:14 AM CDT 8:31 PM CDT
Nautical Twilight 4:38 AM CDT 9:06 PM CDT
Astronomical Twilight 4:00 AM CDT 9:45 PM CDT
Moon 8:50 AM CDT (6/6) 11:22 PM CDT (6/6)
Length of Visible Light 15h 17m
Length of Day
14h 19m
Waxing Crescent, 14% of the Moon is Illuminated
Jun 6
Waxing Crescent
Jun 10
First Quarter
Jun 17
Full
Jun 25
Last Quarter
Jul 2
New

Hourly Weather History & Observations

Time (CDT) Temp. Dew Point Humidity Pressure Visibility Wind Dir Wind Speed Gust Speed Precip Events Conditions
12:15 AM 69.8 °F 69.8 °F 100% 29.92 in 10.0 mi Calm Calm - N/A   Overcast
12:35 AM 69.8 °F 69.8 °F 100% 29.92 in 8.0 mi Calm Calm - N/A   Light Drizzle
12:55 AM 69.8 °F 69.8 °F 100% 29.92 in 10.0 mi South 4.6 mph - N/A   Overcast
1:15 AM 69.8 °F 69.8 °F 100% 29.92 in 10.0 mi Calm Calm - N/A   Overcast
1:35 AM 69.8 °F 69.8 °F 100% 29.91 in 10.0 mi Calm Calm - N/A   Overcast
1:55 AM 69.8 °F 69.8 °F 100% 29.90 in 10.0 mi Calm Calm - N/A   Overcast
2:15 AM 69.8 °F 69.8 °F 100% 29.90 in 10.0 mi Calm Calm - N/A   Overcast
2:35 AM 69.8 °F 69.8 °F 100% 29.90 in 10.0 mi Calm Calm - N/A   Overcast
2:55 AM 69.8 °F 69.8 °F 100% 29.90 in 10.0 mi Calm Calm - N/A   Overcast
3:15 AM 69.8 °F 69.8 °F 100% 29.90 in 10.0 mi Calm Calm - N/A   Overcast
3:35 AM 69.8 °F 69.8 °F 100% 29.89 in 6.0 mi ENE 4.6 mph - N/A   Light Drizzle
3:55 AM 69.8 °F 69.8 °F 100% 29.89 in 10.0 mi Calm Calm - N/A   Overcast
4:15 AM 69.8 °F 69.8 °F 100% 29.88 in 10.0 mi Calm Calm - N/A   Overcast
4:35 AM 69.8 °F 69.8 °F 100% 29.88 in 10.0 mi Calm Calm - N/A   Mostly Cloudy
4:55 AM 69.8 °F 69.8 °F 100% 29.89 in 10.0 mi Calm Calm - N/A   Overcast
5:15 AM 69.8 °F 69.8 °F 100% 29.89 in 8.0 mi SSE 3.5 mph - N/A   Overcast
5:35 AM 69.8 °F 69.8 °F 100% 29.89 in 5.0 mi SE 3.5 mph - N/A   Light Drizzle
5:55 AM 69.8 °F 69.8 °F 100% 29.89 in 3.0 mi SE 4.6 mph - N/A Rain Light Rain
6:15 AM 69.8 °F 69.8 °F 100% 29.89 in 2.5 mi SE 3.5 mph - N/A Rain Light Rain
6:35 AM 69.8 °F 69.8 °F 100% 29.89 in 5.0 mi SSE 3.5 mph - N/A   Light Drizzle
6:55 AM 69.8 °F 69.8 °F 100% 29.89 in 3.0 mi SSE 5.8 mph - N/A Rain Light Rain
7:15 AM 69.8 °F 69.8 °F 100% 29.90 in 3.0 mi SSE 6.9 mph - N/A Rain Light Rain
7:35 AM 69.8 °F 69.8 °F 100% 29.89 in 2.0 mi SE 4.6 mph - N/A Rain Light Rain
7:55 AM 69.8 °F 69.8 °F 100% 29.89 in 2.0 mi SSE 8.1 mph - N/A Rain Light Rain
8:15 AM 69.8 °F 69.8 °F 100% 29.89 in 1.2 mi Variable 4.6 mph - N/A Rain Rain
8:35 AM 69.8 °F 69.8 °F 100% 29.90 in 1.5 mi SSE 4.6 mph - N/A Rain Rain
8:55 AM 69.8 °F 69.8 °F 100% 29.89 in 2.0 mi SE 5.8 mph - N/A Rain Light Rain
9:15 AM 69.8 °F 69.8 °F 100% 29.89 in 0.8 mi SSE 5.8 mph 11.5 mph N/A Rain Rain
9:35 AM 69.8 °F 69.8 °F 100% 29.89 in 1.2 mi SE 5.8 mph - N/A Rain Light Rain
9:55 AM 69.8 °F 69.8 °F 100% 29.88 in 4.0 mi SE 6.9 mph - N/A   Light Drizzle
10:15 AM 71.6 °F 71.6 °F 100% 29.88 in 9.0 mi SE 8.1 mph - N/A   Mostly Cloudy
10:35 AM 71.6 °F 71.6 °F 100% 29.88 in 6.0 mi SE 6.9 mph 13.8 mph N/A   Overcast
10:55 AM 71.6 °F 71.6 °F 100% 29.88 in 10.0 mi SE 8.1 mph - N/A   Overcast
11:15 AM 71.6 °F 71.6 °F 100% 29.87 in 9.0 mi Variable 5.8 mph 11.5 mph N/A   Overcast
11:35 AM 71.6 °F 71.6 °F 100% 29.87 in 6.0 mi SE 5.8 mph - N/A   Overcast
12:15 PM 73.4 °F 73.4 °F 100% 29.86 in 10.0 mi ESE 5.8 mph - N/A   Overcast
12:35 PM 73.4 °F 73.4 °F 100% 29.86 in 9.0 mi SE 6.9 mph 12.7 mph N/A   Overcast
12:55 PM 73.4 °F 73.4 °F 100% 29.85 in 10.0 mi Variable 3.5 mph - N/A   Overcast
1:15 PM 75.2 °F 75.2 °F 100% 29.84 in 10.0 mi SE 8.1 mph - N/A   Mostly Cloudy
1:35 PM 77.0 °F 77.0 °F 100% 29.83 in 10.0 mi SE 8.1 mph - N/A   Overcast
1:55 PM 77.0 °F 77.0 °F 100% 29.83 in 9.0 mi SE 8.1 mph 15.0 mph N/A   Overcast
2:15 PM 78.8 °F 78.8 °F 100% 29.82 in 10.0 mi ESE 6.9 mph - N/A   Overcast
2:55 PM 75.2 °F 75.2 °F 100% 29.81 in 10.0 mi SE 6.9 mph - N/A   Overcast
3:15 PM - - N/A% 29.80 in 10.0 mi SE 9.2 mph 17.3 mph N/A   Mostly Cloudy
3:35 PM 78.8 °F 78.8 °F 100% 29.79 in 7.0 mi SSE 9.2 mph - N/A   Overcast
3:55 PM 78.8 °F 78.8 °F 100% 29.78 in 9.0 mi SSE 9.2 mph 16.1 mph N/A   Mostly Cloudy
4:15 PM 78.8 °F 78.8 °F 100% 29.78 in 10.0 mi Variable 6.9 mph 12.7 mph N/A   Overcast
4:35 PM 78.8 °F 78.8 °F 100% 29.77 in 9.0 mi SE 8.1 mph - N/A   Mostly Cloudy
4:55 PM 78.8 °F 78.8 °F 100% 29.77 in 9.0 mi SSE 9.2 mph - N/A   Mostly Cloudy
5:15 PM 78.8 °F 78.8 °F 100% 29.76 in 9.0 mi Variable 6.9 mph - N/A   Overcast
5:35 PM 78.8 °F 78.8 °F 100% 29.75 in 8.0 mi East 6.9 mph - N/A   Overcast
6:15 PM 77.0 °F 77.0 °F 100% 29.74 in 10.0 mi East 5.8 mph - N/A   Mostly Cloudy
6:35 PM 77.0 °F 77.0 °F 100% 29.73 in 10.0 mi East 5.8 mph - N/A   Mostly Cloudy
6:55 PM 77.0 °F 77.0 °F 100% 29.73 in 10.0 mi East 6.9 mph 12.7 mph N/A   Mostly Cloudy
7:15 PM 77.0 °F 77.0 °F 100% 29.73 in 10.0 mi Variable 3.5 mph - N/A   Overcast
7:35 PM - - N/A% 29.73 in 9.0 mi Variable 4.6 mph - N/A   Overcast
8:15 PM 75.2 °F 75.2 °F 100% 29.72 in 10.0 mi East 4.6 mph - N/A   Mostly Cloudy
8:35 PM 75.2 °F 75.2 °F 100% 29.72 in 10.0 mi East 6.9 mph - N/A   Mostly Cloudy
8:55 PM 75.2 °F 75.2 °F 100% 29.71 in 10.0 mi ENE 8.1 mph - N/A   Mostly Cloudy
9:15 PM 73.4 °F 73.4 °F 100% 29.72 in 5.0 mi Variable 3.5 mph - N/A   Light Drizzle
9:35 PM 73.4 °F 73.4 °F 100% 29.72 in 7.0 mi Calm Calm - N/A   Light Drizzle
9:55 PM 73.4 °F 73.4 °F 100% 29.72 in 9.0 mi Calm Calm - N/A   Overcast
10:15 PM 73.4 °F 73.4 °F 100% 29.73 in 6.0 mi ESE 5.8 mph 12.7 mph N/A   Light Drizzle
10:35 PM 73.4 °F 73.4 °F 100% 29.72 in 4.0 mi ESE 5.8 mph - N/A Rain Rain
10:55 PM 73.4 °F 73.4 °F 100% 29.72 in 5.0 mi East 5.8 mph - N/A   Light Drizzle
11:15 PM 73.4 °F 73.4 °F 100% 29.72 in 9.0 mi NE 3.5 mph - N/A   Light Drizzle
11:35 PM 73.4 °F 73.4 °F 100% 29.72 in 3.0 mi North 3.5 mph - N/A   Light Drizzle
11:55 PM 73.4 °F 73.4 °F 100% 29.72 in 10.0 mi NE 4.6 mph - N/A   Overcast